Location: Fours
(44.3167°N, 6.7000°E)
Time: 08:22:17
(UTC+00:00)

SL-8 Rocket - Pass Details

Date: 30 November 2020
Orbit: 958 x 990 km, 82.9° (Epoch: 26 January)

Event Time Altitude Azimuth Distance (km) Brightness Sun altitude
Rises 16:48:59 0° 353° (N) 3,678 6.9 -9.4°
Reaches altitude 10° 16:51:31 10° 356° (N) 2,731 6.2 -9.8°
Maximum altitude 16:57:46 72° 80° (E) 1,031 4.0 -10.9°
Drops below altitude 10° 17:04:02 10° 165° (SSE) 2,734 6.4 -11.9°
Sets 17:06:33 0° 168° (SSE) 3,681 7.1 -12.4°
